Temp
21 21 22 21 21 21 21 21 21 22 22 22 22 22 22 22 22 23 23 23 23 23 23 23 23 24 24 24 23 24 24 24 24 24 24 23 23 23 23 23 23 23 23 24 24 24 23 22 21 21 23 22 19 19 19 17 17 20 23 23 22 21 21 22 21 20 21 22 20 17 18 20 20 17 14 14 15 15 14 13 13 12 11 10 11 11 12 12
21 21 21 21 22 22 22 22 22 22 22 22 22 22 22 22 22 22 23 23 23 23 23 23 23 24 24 24 24 23 24 24 24 24 23 23 23 23 23 23 23 23 23 24 24 23 24 23 20 20 23 22 19 19 20 18 18 21 22 22 22 22 21 21 21 20 20 22 20 18 17 18 20 18 15 17 18 15 15 15 13 14 13 10 9 10 11 11
21 21 21 21 22 22 22 22 22 22 22 22 22 22 22 22 22 22 23 23 23 23 23 23 23 23 23 24 23 23 24 23 24 24 24 23 23 23 23 23 23 23 24 24 24 23 23 23 20 21 23 22 19 19 21 20 19 20 20 24 23 22 21 19 19 20 20 19 20 19 16 17 18 16 16 18 18 15 16 17 15 15 15 12 9 9 10 10
21 21 21 21 21 22 22 22 22 22 22 22 22 22 22 22 22 22 22 23 23 23 23 23 23 23 23 23 23 23 23 24 24 24 24 24 23 23 23 23 23 24 24 24 24 23 22 21 20 21 23 23 19 19 21 20 20 19 20 25 22 19 21 21 19 20 18 17 19 19 17 18 16 15 16 17 18 17 17 17 17 18 16 12 9 8 9 10
21 21 21 21 21 21 22 22 22 22 22 22 22 22 22 22 22 22 22 22 23 23 23 23 23 22 23 23 23 23 23 25 24 23 23 23 23 23 23 23 23 24 23 24 24 23 23 20 19 22 23 23 21 21 22 18 18 21 21 22 19 17 22 22 18 18 17 16 18 18 18 18 16 15 16 17 20 21 18 17 17 18 15 11 10 9 9 9
21 21 21 21 21 21 21 22 22 22 22 22 22 22 22 22 22 22 22 22 22 23 23 23 23 22 23 22 22 23 23 25 24 22 23 23 23 23 23 24 23 24 24 24 23 23 23 21 21 24 22 22 22 21 21 17 17 22 21 19 18 17 21 21 18 17 16 18 20 19 18 17 16 18 16 15 19 20 17 15 15 15 13 11 10 9 9 9
21 21 21 21 21 21 21 21 22 22 22 22 22 22 22 22 22 22 22 22 22 23 23 23 23 22 22 22 22 22 22 24 23 22 23 23 23 23 23 23 23 24 23 23 23 23 23 23 23 22 22 22 21 20 20 18 17 21 22 20 18 16 19 20 17 17 17 19 19 16 17 17 19 19 15 15 17 18 15 11 11 11 10 10 10 9 9 9
20 20 21 21 21 21 21 21 21 21 22 22 22 22 22 22 22 22 22 22 22 23 23 23 23 22 22 22 22 22 22 23 22 22 23 23 23 23 23 23 23 24 23 23 22 22 22 23 22 20 22 23 20 20 19 19 20 21 21 20 18 17 19 19 16 17 17 18 16 15 18 19 18 16 15 17 17 16 14 10 10 10 9 10 10 9 9 9
19 20 20 20 21 21 21 21 21 21 22 22 22 22 22 22 22 22 22 22 22 23 23 23 23 22 22 21 21 23 23 23 22 22 22 23 23 23 23 23 24 24 23 23 21 22 22 22 21 21 23 21 19 21 19 21 22 21 21 20 19 19 19 18 18 18 16 16 16 17 20 18 15 15 17 18 17 15 13 12 11 10 10 10 10 9 9 8
18 19 19 20 20 20 21 21 21 21 21 22 22 22 22 22 22 22 22 22 22 23 23 23 23 22 22 21 21 23 23 22 22 22 22 23 22 22 23 23 23 24 23 22 21 21 22 21 19 18 21 20 19 19 18 21 21 19 19 19 19 19 18 17 18 18 16 16 16 18 21 18 15 15 20 19 13 12 13 12 11 11 11 10 10 9 9 9
17 18 18 19 19 20 20 20 21 21 21 22 22 22 22 22 22 22 22 23 23 23 23 22 22 22 22 21 22 23 22 21 22 22 22 22 22 22 23 23 23 23 23 21 20 20 21 20 17 17 21 21 20 19 18 18 18 18 18 19 18 18 18 16 17 17 16 18 16 17 19 17 15 16 20 18 11 11 14 13 10 10 11 9 9 9 8 8
16 16 17 18 18 19 19 20 20 20 21 21 22 22 22 23 22 23 22 23 23 23 23 22 22 22 21 21 22 23 22 21 21 21 22 22 22 22 22 22 22 23 23 21 19 19 20 19 18 20 21 20 20 20 19 17 16 17 17 21 21 20 20 17 17 16 16 19 16 17 19 18 17 17 20 15 9 10 13 13 10 9 10 9 9 8 8 8
15 15 16 17 17 18 18 19 20 20 21 21 22 22 23 23 23 23 23 23 23 22 22 22 22 21 21 22 21 21 21 21 21 21 21 21 21 22 21 21 22 22 23 21 20 19 19 19 19 20 19 19 21 19 18 16 15 18 17 19 21 21 22 18 15 15 17 18 16 17 20 21 19 18 18 13 10 12 13 13 10 9 9 8 8 8 8 8
13 14 15 15 16 17 17 18 19 19 20 21 22 22 23 23 23 23 23 23 23 22 22 22 22 21 21 22 21 20 20 20 20 20 20 21 21 21 20 20 21 21 21 21 20 19 19 19 19 19 17 18 19 17 18 17 16 18 18 18 18 20 22 18 15 16 18 17 15 18 20 22 21 20 19 12 10 13 15 14 10 9 8 8 8 8 8 8
12 13 13 14 15 16 17 17 18 19 20 20 21 22 22 23 24 23 23 23 22 22 22 21 21 20 20 22 21 20 20 20 20 20 20 20 20 20 19 19 20 20 20 20 19 18 18 19 20 20 18 16 17 19 21 20 18 18 20 20 18 18 21 20 16 15 19 17 15 18 20 21 21 21 18 10 9 13 15 14 11 9 8 8 8 8 8 8
12 12 12 13 14 15 16 17 17 18 19 20 21 22 22 23 24 23 23 22 22 21 21 21 20 21 22 22 20 19 19 19 19 19 19 20 20 20 19 19 19 19 19 18 18 18 18 19 17 17 18 17 18 21 21 21 20 18 19 21 20 19 20 20 17 14 16 17 16 18 19 20 21 19 14 9 9 12 13 14 11 10 9 8 8 8 8 8
11 11 12 12 13 14 15 16 17 17 18 19 20 22 23 23 23 23 22 21 21 21 20 21 20 20 22 21 20 21 19 18 19 18 19 19 20 20 19 18 17 17 18 18 18 18 18 18 16 15 18 17 18 20 21 21 21 19 18 20 20 19 19 20 19 15 14 16 17 17 17 19 21 20 16 11 10 11 13 13 12 11 9 8 8 8 8 8
11 11 11 11 12 13 14 16 16 17 18 19 20 21 23 23 22 22 21 21 20 20 20 20 20 22 23 21 21 20 18 17 18 18 19 19 19 20 20 18 16 17 19 19 19 19 19 18 17 19 19 18 18 20 21 20 21 21 20 20 20 18 18 19 19 17 15 17 17 17 17 17 18 19 18 15 11 12 14 13 12 12 10 9 8 8 8 8
10 10 10 10 11 12 14 15 16 16 17 19 20 21 22 22 21 21 20 20 21 22 23 21 21 23 23 21 19 18 17 17 18 18 18 18 19 19 19 18 17 19 20 20 21 19 19 19 19 20 20 20 21 21 22 22 21 21 20 20 20 19 18 18 18 15 15 16 17 16 16 17 17 18 18 17 13 13 14 12 12 12 10 9 8 8 8 8
10 9 9 9 10 12 14 15 16 16 17 18 19 21 22 22 22 22 20 21 21 21 22 22 21 22 22 20 18 17 18 17 18 18 18 18 19 19 19 18 19 20 20 21 21 17 16 20 20 20 22 22 22 20 20 20 19 19 19 19 19 18 18 18 17 14 13 16 17 16 16 15 16 16 17 17 14 13 13 12 11 11 11 10 9 9 8 8
9 9 9 9 9 10 13 15 15 16 17 17 18 20 21 20 21 21 19 20 18 14 17 19 17 18 20 18 17 17 18 19 18 17 17 18 18 20 19 18 20 20 18 18 18 16 16 20 20 20 20 20 18 16 16 17 17 18 18 18 18 16 17 17 15 13 13 15 16 16 15 15 15 16 16 16 16 16 15 14 12 12 12 10 9 9 9 9
9 9 9 9 9 10 12 14 14 15 16 17 18 18 17 16 17 17 16 20 18 12 13 14 13 16 16 15 16 17 19 20 19 17 17 17 18 20 20 19 20 20 17 16 18 18 18 20 20 18 15 15 14 14 16 18 17 17 17 17 18 16 16 17 14 12 12 14 15 15 14 15 15 15 16 16 16 17 17 16 14 14 13 11 10 10 9 9
9 9 9 9 9 9 11 13 13 14 16 16 17 16 15 15 16 15 15 18 18 14 14 15 17 18 17 15 16 17 19 20 20 19 16 17 18 18 19 19 19 19 17 17 19 19 20 20 17 14 14 16 17 14 16 18 16 17 17 17 19 16 17 18 15 12 12 13 14 14 13 14 16 16 16 16 16 16 16 16 15 14 13 12 11 10 10 9
10 9 9 9 9 10 11 12 13 13 14 15 16 16 15 15 15 15 16 17 18 17 16 15 16 17 18 16 16 17 19 18 19 18 15 17 19 17 19 19 18 19 18 18 19 19 21 18 11 11 15 18 19 16 16 17 17 17 16 17 18 17 17 18 15 13 13 13 11 13 16 17 17 16 17 16 14 15 15 15 14 13 12 12 12 11 10 10
10 9 9 9 9 10 11 12 12 12 13 14 14 15 15 15 15 15 16 18 18 17 16 15 14 16 17 16 16 17 18 18 17 16 14 16 18 17 18 17 18 20 18 17 17 18 19 14 10 14 16 16 19 18 16 17 18 17 17 17 17 18 17 15 14 14 16 16 12 13 19 20 17 17 19 16 16 17 16 16 17 14 11 11 11 11 10 10
10 9 9 9 9 10 11 12 11 11 13 13 13 14 14 15 15 14 17 18 18 18 18 18 17 18 17 16 15 16 19 19 15 13 13 15 16 18 19 17 17 18 17 16 17 18 17 11 11 17 17 16 18 17 16 16 17 18 16 15 15 15 15 14 14 15 17 17 13 13 18 19 18 20 21 19 19 21 19 19 19 16 13 12 11 11 11 9
10 9 9 9 9 10 10 11 10 11 13 13 13 14 13 14 14 14 18 18 18 20 20 18 17 19 18 15 14 17 21 19 14 13 13 14 15 17 19 18 17 16 15 16 19 18 15 12 12 15 16 16 17 17 15 14 17 18 13 12 14 14 14 14 14 15 15 13 12 14 15 15 16 18 20 19 19 20 19 19 19 17 15 13 11 11 10 10
10 9 9 9 9 9 8 9 9 10 12 12 12 13 13 14 14 16 19 19 19 21 20 17 16 17 16 13 14 17 17 16 18 16 12 14 16 16 18 18 18 18 14 17 20 17 14 15 15 15 15 16 16 16 14 14 18 17 10 10 13 13 14 14 14 14 12 11 14 14 13 14 16 15 16 16 17 18 19 19 20 19 17 15 13 11 10 9
10 10 9 9 9 9 8 8 8 9 11 11 11 12 13 13 14 17 18 18 20 21 20 18 17 16 15 14 15 16 15 15 18 16 13 14 15 15 17 16 17 18 14 15 20 17 14 13 13 15 17 17 15 11 9 14 18 13 9 10 11 11 11 12 12 14 12 12 15 15 13 16 18 18 16 14 15 18 19 20 19 18 16 15 14 13 10 9
10 10 9 9 9 8 8 9 8 9 10 11 12 12 13 14 16 18 16 17 21 21 18 18 17 17 16 16 17 16 15 16 15 14 15 15 15 15 14 13 15 17 15 15 17 16 12 9 10 14 16 14 11 8 7 11 12 10 10 13 13 12 10 10 11 12 14 15 17 16 14 16 18 18 17 16 17 19 21 21 19 18 18 16 15 13 11 9
10 10 9 9 9 9 9 9 9 10 10 11 12 12 14 16 17 17 16 18 21 19 18 18 17 16 16 18 18 16 15 16 15 15 16 15 15 16 15 15 16 17 17 17 16 15 12 11 12 13 11 10 11 10 8 8 8 10 14 15 16 15 13 13 12 13 16 18 17 13 11 13 16 17 17 17 17 18 20 23 22 22 22 20 17 14 12 9
10 10 10 9 9 9 9 9 10 10 10 11 11 12 16 17 16 16 17 19 21 19 20 19 16 16 16 17 18 15 15 16 15 15 16 15 15 16 16 18 18 18 19 18 17 16 15 14 13 12 9 10 15 14 11 9 9 12 15 15 16 16 16 16 16 15 16 18 15 10 11 14 16 17 17 17 18 17 17 19 22 23 23 22 19 15 13 9
10 10 10 9 9 9 9 9 9 9 10 10 11 14 17 17 17 17 18 20 21 18 18 17 15 15 15 16 17 15 15 16 15 15 16 15 15 15 16 16 16 19 20 17 16 18 18 14 11 13 13 11 15 17 15 14 12 12 15 16 17 17 17 18 17 16 16 17 14 10 12 15 16 18 18 17 19 19 16 16 18 20 21 21 17 14 12 9
10 10 9 9 9 9 9 9 9 9 9 10 13 16 16 16 17 17 18 20 19 16 16 16 14 14 15 17 17 15 16 17 15 14 15 14 14 15 16 15 14 17 18 17 17 18 20 18 14 16 16 13 14 16 17 15 12 11 14 15 16 17 18 19 19 18 18 18 14 11 14 16 18 20 18 17 18 17 17 16 15 15 15 15 13 11 11 9
10 10 10 9 9 9 10 9 9 9 9 10 14 16 15 17 17 17 18 19 18 17 15 14 14 16 16 15 15 15 17 18 15 14 15 14 15 16 17 16 14 16 18 18 18 16 18 20 16 12 11 11 13 14 13 15 14 11 12 14 15 16 18 18 16 15 15 15 14 13 15 16 18 18 16 16 16 15 17 15 14 15 13 11 12 12 11 9
10 10 10 9 9 9 10 9 9 9 9 11 14 15 15 18 18 17 18 18 19 18 16 15 16 17 17 16 15 15 16 17 15 15 15 14 15 15 15 17 14 15 18 18 18 17 17 18 14 9 10 10 11 12 11 15 16 12 12 14 13 13 16 18 14 12 11 14 16 15 15 17 18 17 16 16 16 16 16 15 15 16 14 11 12 13 11 9
10 10 9 9 9 9 10 9 9 9 9 11 14 15 16 18 18 18 18 17 18 18 18 18 18 18 18 18 17 15 15 16 14 15 16 15 16 15 15 16 15 15 18 19 19 18 19 19 13 10 14 10 6 9 11 11 13 13 13 14 12 12 14 16 15 14 13 14 16 16 17 18 19 18 16 15 15 16 16 15 15 16 13 12 13 13 11 9
10 9 9 9 9 9 10 9 8 9 10 11 13 15 16 16 16 16 17 17 17 19 19 19 18 18 19 19 18 14 15 17 15 15 17 16 17 17 15 16 16 14 16 19 19 18 18 20 15 10 12 10 6 10 13 10 9 12 12 12 13 15 15 14 15 16 15 15 16 17 18 18 18 18 18 18 17 17 16 14 14 15 14 13 13 12 11 9
10 9 9 9 9 10 10 9 8 9 10 10 12 13 15 15 15 15 16 17 18 19 18 19 19 18 18 18 17 15 14 16 15 15 17 17 17 17 16 18 17 14 15 17 18 18 17 20 18 10 7 10 9 11 14 12 9 10 11 11 12 15 15 14 14 14 16 16 16 18 18 18 20 20 20 20 19 18 18 16 15 15 14 13 12 12 11 9
9 9 10 9 9 10 9 9 8 9 10 11 12 13 13 14 15 15 16 16 17 18 18 18 18 18 17 16 16 16 16 15 14 15 17 17 17 17 16 17 18 14 13 15 16 17 17 18 19 12 7 10 12 12 14 14 11 10 12 12 12 12 13 13 13 12 15 16 16 16 17 19 20 20 21 21 19 18 18 18 17 17 15 13 12 12 11 9
9 10 9 9 9 9 9 8 9 9 10 11 12 13 13 13 14 15 15 14 15 16 16 17 18 18 18 17 16 16 16 15 14 14 16 16 17 19 17 17 17 14 13 14 15 16 17 17 18 15 12 12 14 12 11 13 13 12 13 13 13 13 13 13 14 12 12 14 15 15 16 18 20 20 21 20 19 18 17 16 18 18 17 15 12 10 10 9
10 10 9 8 8 9 8 9 9 9 9 11 12 12 13 13 13 14 15 14 14 15 15 16 17 17 17 17 16 16 16 16 14 14 15 16 16 18 18 16 15 14 15 15 14 14 16 17 17 17 17 15 12 8 7 10 12 13 13 13 13 13 14 15 16 14 11 12 13 12 13 17 19 19 19 19 19 19 16 16 18 18 16 15 12 9 8 8
10 10 8 7 8 9 9 9 9 9 9 11 12 12 13 13 13 13 14 14 14 14 14 15 16 16 16 16 16 16 16 16 15 14 15 16 16 16 16 14 14 15 16 15 15 14 15 17 16 16 18 15 9 7 7 9 11 13 12 12 12 13 14 15 15 14 13 13 12 11 12 16 18 18 18 18 18 17 15 14 16 16 14 13 11 9 8 7
10 9 7 7 8 9 9 10 10 9 9 10 11 11 12 13 12 12 13 13 14 14 15 15 15 16 16 16 16 16 16 16 16 15 15 17 16 13 14 15 14 16 17 16 16 16 16 17 16 15 16 16 13 11 10 10 11 12 13 12 12 13 13 13 12 11 13 14 13 13 14 16 18 16 16 16 15 15 14 12 13 13 13 13 11 10 8 6
10 9 7 7 7 8 9 10 11 10 10 10 10 11 11 11 12 12 12 13 14 14 14 15 15 15 16 15 15 15 15 16 17 15 15 17 15 12 11 14 15 16 17 16 16 17 16 17 16 15 15 16 16 16 15 13 11 11 12 11 11 12 12 12 12 12 12 13 12 13 15 17 18 18 17 17 15 14 14 13 11 11 11 11 11 10 8 6
10 9 8 7 7 8 9 10 10 10 10 10 10 10 11 11 12 12 12 12 13 13 14 14 13 14 15 14 14 15 14 15 15 15 15 16 15 12 9 10 13 14 14 14 15 16 16 16 16 17 17 16 17 18 17 15 13 12 12 12 11 11 11 12 13 13 13 12 11 13 15 16 17 18 18 18 17 16 16 15 14 12 11 10 10 10 8 6
11 10 9 8 8 8 8 9 9 9 11 10 10 11 11 11 11 12 11 12 13 13 13 13 13 13 14 14 14 15 15 14 13 14 15 15 14 12 9 9 11 11 11 13 14 14 15 16 16 17 17 18 19 19 16 15 16 15 14 13 12 11 10 11 11 13 14 13 12 14 15 14 15 16 17 17 18 17 17 17 16 16 14 12 11 9 7 6
11 11 10 10 10 9 8 9 9 9 10 10 11 12 12 12 11 11 11 11 12 12 12 12 13 13 14 14 14 14 14 14 13 13 14 14 14 13 12 11 11 10 11 12 12 13 15 15 16 16 16 16 17 18 16 15 15 15 14 14 14 12 10 10 11 12 13 13 14 15 15 14 15 16 17 17 17 17 17 17 16 16 15 14 12 10 8 7
10 11 11 10 10 10 9 9 9 9 9 10 10 11 12 12 12 12 12 11 11 11 12 12 13 13 13 14 14 13 13 14 14 14 14 14 13 13 14 13 11 9 10 12 11 12 13 14 16 15 15 15 15 15 15 14 14 14 14 14 14 13 12 11 11 13 13 12 14 15 14 14 15 16 17 17 17 17 16 16 16 16 15 14 13 11 9 7
11 11 11 10 10 10 10 10 9 9 9 9 10 11 12 12 12 12 12 11 11 11 11 12 13 13 13 12 12 12 13 14 14 15 15 14 13 13 14 15 13 9 9 11 12 11 12 14 15 15 14 14 15 15 14 14 13 14 14 14 14 14 13 12 12 12 12 12 12 12 12 13 15 16 16 16 16 16 15 15 15 15 15 15 14 12 10 8
11 11 11 11 10 10 10 10 9 8 9 9 9 10 11 11 12 13 12 12 12 12 11 11 12 12 12 12 12 12 13 14 14 15 15 14 14 14 14 15 15 12 9 10 11 10 11 12 14 13 12 12 14 14 14 13 13 12 13 14 14 14 14 14 13 13 13 12 12 12 11 12 14 15 15 15 15 15 15 15 15 15 15 14 14 14 12 9
10 10 10 10 10 10 10 10 9 8 9 9 9 10 11 11 12 12 11 12 12 12 11 12 12 11 11 11 12 13 13 14 14 14 15 14 14 15 14 14 14 13 11 10 10 10 11 11 12 12 10 11 13 13 13 12 11 11 12 14 14 14 14 14 14 14 14 13 12 12 13 14 15 15 15 14 14 14 14 15 14 15 14 14 14 13 12 10
Height
838 837 836 836 835 834 833 832 832 831 830 829 828 828 827 826 825 824 823 822 821 820 820 819 818 818 818 818 818 817 817 816 815 814 814 814 813 813 812 811 811 810 810 809 808 808 809 809 809 810 809 812 816 817 817 819 821 820 825 830 830 838 836 828 831 832 828 824 827 833 832 829 830 835 838 838 839 840 842 842 841 840 840 840 838 838 840 842
838 837 836 836 835 834 833 832 832 831 830 829 829 827 827 826 825 825 823 822 821 820 819 819 818 818 818 818 817 817 817 816 815 814 813 813 812 812 812 811 810 810 809 808 808 808 808 809 809 810 811 815 819 818 818 820 820 823 829 830 828 832 829 824 825 826 827 823 826 831 833 831 827 831 836 834 835 839 839 839 840 839 837 838 838 839 840 841
838 837 836 835 835 834 833 832 831 831 830 829 828 827 827 826 825 825 823 823 821 820 819 818 818 817 817 817 817 818 816 816 816 814 812 812 812 812 812 811 810 809 809 808 807 807 807 808 808 810 813 816 820 820 818 820 821 825 829 826 825 826 824 826 825 823 825 825 826 830 833 833 829 832 834 831 833 838 834 830 834 834 831 835 838 839 839 841
838 837 836 836 835 834 833 832 831 831 830 829 828 827 826 825 825 824 823 822 821 820 818 818 817 816 817 816 817 817 816 818 816 812 811 812 812 812 811 811 810 809 809 808 807 807 807 808 808 810 813 817 822 822 821 821 822 825 826 821 824 828 824 822 823 822 825 828 826 828 833 832 831 834 833 831 832 832 828 823 822 821 823 832 837 838 838 839
839 838 837 836 835 834 833 832 831 830 830 829 828 827 826 825 824 823 823 822 821 820 818 818 817 816 816 815 817 816 818 823 816 809 811 811 811 811 811 811 810 809 809 808 807 807 806 807 809 811 814 818 821 821 822 825 824 824 824 823 827 830 822 819 824 824 827 829 827 829 830 828 832 834 831 831 825 818 818 817 816 815 819 827 831 834 836 838
839 838 837 836 835 834 833 832 831 830 829 829 828 826 825 824 824 823 822 821 820 820 818 818 816 816 815 815 816 815 820 822 813 809 811 810 811 811 810 810 810 809 809 808 808 807 807 809 810 813 816 819 823 822 822 827 827 822 823 826 827 829 822 819 824 825 826 826 824 826 826 828 831 828 829 830 818 811 814 816 815 817 820 824 827 831 833 834
838 837 836 835 835 834 833 832 831 830 829 828 827 826 825 824 823 822 821 820 820 819 818 817 816 816 815 816 816 816 820 817 809 809 810 809 810 810 810 810 810 809 809 808 808 808 809 810 811 816 818 819 824 824 823 826 827 823 822 823 825 829 823 820 824 825 826 822 822 828 826 827 826 824 830 825 811 812 816 817 817 817 820 824 826 829 828 829
837 836 836 835 834 833 832 831 831 830 828 827 826 826 825 823 823 822 821 820 819 818 817 816 816 815 815 816 816 819 820 813 808 809 809 809 810 809 810 809 809 809 809 808 808 808 810 812 814 817 818 820 822 822 825 825 824 823 822 823 826 828 822 822 825 824 826 824 826 829 823 823 825 828 828 814 807 812 815 816 818 819 821 824 824 826 827 828
836 836 835 834 833 833 832 831 830 829 828 827 825 825 824 823 822 821 820 819 818 817 816 815 815 814 815 815 816 820 816 809 808 809 809 809 809 809 809 809 809 808 808 808 808 807 809 813 815 815 815 820 822 821 824 822 821 821 822 823 824 823 821 823 823 822 826 826 827 825 820 823 828 830 819 803 805 810 813 816 817 819 821 822 822 823 824 825
835 835 834 833 833 832 831 830 829 828 827 826 824 824 823 821 820 819 818 818 817 816 815 815 814 814 815 814 818 821 811 807 809 808 808 808 808 809 808 809 808 808 808 807 808 807 809 811 812 813 813 819 822 823 825 822 820 823 824 824 823 823 823 825 822 823 826 825 826 823 819 823 828 830 811 798 808 811 811 816 817 818 818 819 820 821 822 823
835 834 833 833 832 831 830 829 828 827 826 824 824 822 821 820 819 818 817 816 815 814 814 813 813 814 813 814 819 818 808 807 808 807 808 808 808 809 808 808 807 807 807 807 808 808 808 809 811 812 813 816 820 824 825 823 823 824 825 823 824 824 824 825 823 824 825 822 825 823 822 825 830 828 805 798 812 812 810 814 817 817 816 818 819 820 821 821
834 833 832 832 831 830 829 828 827 826 825 824 823 821 820 819 817 816 815 814 813 812 812 812 812 813 813 815 816 811 806 807 807 807 808 807 808 808 807 807 807 807 806 807 808 808 809 809 810 812 814 816 819 823 823 824 827 826 826 821 820 821 819 822 824 825 824 821 824 825 822 821 824 814 797 803 814 812 812 812 816 817 816 818 818 819 820 820
833 832 832 831 830 829 828 827 826 825 824 822 821 820 819 817 815 814 813 812 811 811 811 811 811 811 814 814 810 807 806 807 807 807 807 807 808 807 807 807 807 807 806 806 808 808 809 809 810 812 815 816 819 822 821 826 829 826 828 825 822 820 817 821 826 827 824 822 824 825 819 806 806 803 796 808 814 811 812 811 815 817 816 818 817 818 818 818
833 832 831 830 829 828 827 826 825 824 822 821 820 819 818 816 814 812 811 811 809 810 810 810 811 811 813 812 806 806 806 806 807 807 807 807 807 807 807 807 807 807 807 807 807 808 809 809 810 812 817 819 820 822 822 827 828 826 828 830 833 826 817 820 827 826 821 824 825 824 822 802 793 796 797 809 812 808 807 807 813 815 815 817 816 817 815 815
832 831 830 829 828 827 826 825 824 823 821 820 819 817 816 815 813 811 810 809 809 810 809 810 810 811 814 810 804 806 806 806 806 806 807 807 807 807 807 807 808 808 807 808 808 809 810 809 810 813 819 821 821 821 822 824 826 830 825 823 836 833 821 820 825 827 820 823 826 823 822 807 793 793 798 809 812 809 805 804 811 813 814 814 813 815 813 813
831 830 829 828 827 826 825 824 823 822 820 819 818 816 815 813 811 810 809 808 808 809 809 810 809 810 814 810 805 805 805 806 806 806 807 806 806 807 807 808 808 808 808 809 809 810 810 810 816 820 820 820 822 820 822 825 825 833 831 820 827 830 826 822 822 830 826 823 825 822 819 807 794 793 802 812 812 809 806 803 807 809 810 811 811 811 811 811
831 830 828 827 826 825 824 823 822 821 819 818 816 814 814 812 810 808 808 808 808 808 808 809 808 810 811 807 805 805 805 805 805 806 806 806 807 806 807 807 808 809 809 809 809 810 810 814 820 822 822 825 827 822 824 828 820 828 836 827 826 828 828 823 818 827 830 825 824 822 821 810 794 791 799 808 810 809 805 800 802 804 806 807 808 809 808 809
830 829 828 826 825 824 823 822 822 820 818 817 816 813 812 810 809 808 808 807 807 808 809 808 809 813 811 805 805 805 804 805 805 806 805 805 806 806 806 807 808 809 809 811 811 811 812 816 821 820 822 827 827 823 824 824 817 819 826 824 825 829 830 826 820 824 826 825 824 824 822 812 800 792 791 799 808 805 797 796 797 797 801 803 805 806 805 806
830 828 827 826 824 823 822 822 821 819 818 816 815 813 810 809 808 807 806 807 808 809 810 809 808 811 809 803 804 804 803 804 804 804 805 805 805 806 806 806 808 808 811 814 811 814 816 817 821 821 821 821 819 818 815 814 815 817 822 823 822 824 825 824 822 826 827 825 823 822 819 811 803 795 787 791 803 801 793 794 795 794 796 800 802 802 802 802
829 828 827 825 824 822 822 821 820 819 818 816 815 812 810 811 811 809 808 806 806 807 807 806 805 805 803 801 802 802 803 804 803 804 804 805 805 805 806 807 809 810 813 814 812 820 822 819 820 817 813 811 811 816 817 818 821 822 824 826 827 828 824 820 822 828 830 825 816 814 817 813 804 796 788 789 797 796 790 791 792 790 791 794 797 797 797 797
829 828 826 825 823 822 821 820 819 819 818 817 816 814 814 817 816 814 812 806 803 804 803 803 804 803 800 800 800 800 802 802 802 803 803 804 805 806 807 809 811 813 817 820 818 822 824 820 815 810 811 813 817 824 824 823 825 824 825 827 829 833 826 819 825 830 831 828 817 813 816 811 802 794 787 789 792 784 778 784 784 782 785 790 792 792 792 792
828 827 826 825 823 822 820 819 818 818 817 817 816 816 816 817 816 816 816 811 804 802 803 803 804 802 799 799 799 799 801 802 801 801 802 803 804 805 807 810 813 814 820 824 820 821 824 817 808 811 821 824 826 830 823 821 825 826 830 831 828 830 826 820 829 834 833 829 818 815 817 804 794 790 780 780 783 772 766 774 774 773 779 784 785 785 787 790
827 826 826 824 822 822 819 818 817 817 817 816 816 816 816 816 816 817 817 816 808 800 800 801 799 798 797 797 797 799 800 801 799 798 799 801 803 806 806 809 814 815 819 819 816 821 820 811 813 821 823 818 821 828 824 822 827 826 829 828 822 826 825 816 824 833 832 830 824 821 817 797 784 782 772 771 776 769 765 768 768 769 772 773 776 779 781 783
825 825 825 823 822 820 818 818 816 816 816 816 816 815 815 816 816 816 815 816 811 800 797 798 797 795 794 794 794 796 799 800 798 796 797 799 802 806 804 807 813 814 816 815 815 818 810 811 826 829 820 813 815 824 825 822 824 827 828 824 817 820 821 818 825 831 828 829 831 822 798 775 775 777 767 770 776 770 767 767 764 766 768 769 771 773 774 775
824 824 823 822 822 819 818 817 816 817 816 815 816 815 816 816 816 817 816 817 813 803 797 795 795 793 791 793 793 795 798 797 796 796 797 797 799 803 805 808 809 808 812 816 819 816 808 817 827 820 817 817 813 817 822 820 822 824 821 817 815 815 818 823 829 829 822 820 829 825 794 766 770 773 765 769 771 763 764 762 756 760 766 768 769 767 768 770
823 823 822 822 821 818 817 816 816 816 814 815 816 815 817 815 816 817 815 821 816 800 794 792 791 789 788 792 794 795 797 795 794 796 796 797 797 798 803 808 809 808 812 816 818 813 811 823 825 812 813 817 814 817 820 822 824 821 817 818 821 821 822 826 828 825 820 819 826 829 813 785 769 762 758 763 763 755 756 754 746 751 760 763 764 762 764 767
822 822 822 821 820 818 817 817 817 815 814 816 815 815 817 815 817 816 816 826 813 788 787 792 790 787 787 793 794 792 793 793 794 796 796 796 797 797 799 805 808 809 814 815 811 808 811 821 822 815 814 817 817 815 817 823 819 816 823 826 823 823 824 824 825 824 824 830 830 825 825 809 781 767 760 758 761 758 756 753 745 745 751 756 758 759 760 762
821 821 821 821 820 819 819 818 817 816 816 815 814 816 815 815 818 814 821 830 803 776 780 788 788 787 788 794 794 792 794 792 792 795 797 797 796 798 798 801 802 804 811 810 803 805 810 812 813 814 816 817 814 813 818 819 811 815 832 834 827 826 826 826 826 827 832 838 826 819 830 818 780 767 770 768 768 763 754 749 741 739 744 748 752 754 757 758
820 820 820 821 819 819 819 818 818 817 816 815 815 815 814 817 816 816 833 830 791 771 779 783 786 789 791 795 795 794 796 794 792 794 797 797 796 798 799 802 802 803 811 810 800 802 810 813 813 811 809 809 813 825 829 816 809 823 837 836 833 834 834 834 830 827 834 834 814 808 823 811 768 751 766 775 771 760 748 742 739 738 742 745 747 749 753 756
818 818 819 819 818 819 818 817 817 816 815 815 815 815 815 816 816 826 840 819 781 776 784 783 786 789 791 794 794 795 796 795 796 797 798 798 797 798 802 805 804 803 808 810 805 805 815 822 820 811 806 810 819 833 836 827 823 831 832 826 827 833 837 840 836 831 828 814 796 796 807 805 775 750 755 760 752 744 738 736 738 736 736 739 742 745 748 752
815 816 817 817 818 819 817 818 817 815 816 814 814 816 814 817 825 833 824 794 778 783 783 784 789 789 790 790 788 793 796 794 796 796 796 798 799 800 802 802 804 806 808 807 804 807 814 816 813 810 813 817 818 824 833 836 835 830 822 817 817 823 827 830 831 831 819 793 788 805 814 810 784 751 747 747 740 738 733 726 727 726 726 730 736 741 745 748
813 814 815 815 816 817 817 817 815 816 815 813 815 814 813 823 827 818 802 782 778 781 776 781 790 788 790 790 787 793 795 792 794 794 794 798 799 798 796 792 795 801 802 802 802 802 803 805 808 809 815 815 806 813 829 833 833 825 818 819 820 820 821 816 814 819 811 790 795 818 818 802 772 742 741 745 736 736 735 727 722 720 720 723 730 737 741 747
810 811 812 813 814 815 816 816 815 817 814 814 816 811 817 828 810 790 790 781 774 777 777 781 789 791 791 790 787 793 794 790 792 794 793 797 799 797 793 791 792 789 788 799 805 799 793 799 809 805 804 808 799 800 810 816 824 823 814 814 816 819 822 813 808 813 805 788 798 820 811 784 755 731 731 733 724 724 730 730 726 722 721 722 729 737 740 745
808 809 810 810 811 813 814 815 815 815 815 815 813 812 823 822 792 779 785 776 771 780 783 785 791 792 790 787 786 788 787 785 790 793 794 798 800 796 790 791 794 788 788 799 802 797 788 785 792 792 789 797 795 790 792 800 817 821 812 811 809 808 808 799 794 795 789 783 798 815 799 765 736 719 719 721 719 722 726 728 729 729 729 731 734 738 740 742
805 806 807 807 808 810 811 813 814 814 817 814 810 814 815 796 780 781 780 773 775 780 783 788 790 788 788 788 789 786 780 779 788 794 793 794 792 786 780 781 789 788 787 794 794 797 795 778 780 793 795 795 792 791 795 796 806 819 818 812 807 799 793 795 803 805 805 802 796 794 777 746 726 719 720 722 722 724 724 726 730 728 730 736 736 734 736 739
801 802 803 803 803 807 808 810 812 814 816 813 811 811 792 768 769 775 768 765 769 770 780 788 786 785 787 785 786 786 780 780 789 790 791 792 787 781 777 771 777 779 774 779 785 789 790 779 785 801 799 797 795 793 798 791 791 812 816 803 802 802 792 794 810 822 827 812 783 772 761 735 722 718 715 719 722 722 723 724 726 722 725 734 732 729 732 735
797 796 797 795 797 802 805 807 810 813 815 815 809 794 773 760 762 764 760 762 764 763 772 777 775 777 777 773 775 782 781 782 788 786 785 788 777 769 773 766 767 770 760 762 771 772 772 773 786 796 787 796 809 801 798 798 794 802 803 794 799 806 800 798 804 811 819 809 779 763 752 732 724 720 712 719 724 719 720 722 720 720 725 729 726 725 728 731
790 792 790 787 791 797 801 804 808 810 814 817 805 782 768 765 763 762 763 763 762 762 766 768 766 767 768 766 770 781 783 778 784 785 778 778 765 753 761 762 761 765 758 758 765 765 768 768 780 798 794 797 812 801 791 801 804 798 796 796 796 794 796 804 805 797 798 802 781 756 746 729 715 711 705 708 713 710 713 719 719 718 721 724 722 722 725 729
786 789 784 778 785 793 797 801 805 808 813 813 801 783 772 768 766 766 765 762 760 761 764 763 762 764 766 766 768 777 780 774 780 782 770 768 762 750 753 752 752 761 761 761 763 762 769 767 770 799 808 800 802 797 785 792 805 805 801 802 797 790 791 795 799 793 783 787 777 758 747 715 685 691 694 691 699 702 703 710 713 713 714 718 719 718 720 725
783 786 780 773 780 789 794 800 803 807 807 797 785 777 773 769 765 762 761 760 759 758 760 759 759 762 763 767 768 767 771 772 776 776 766 761 757 749 749 746 747 761 764 763 764 761 769 769 766 791 812 801 788 782 772 771 787 797 795 796 796 794 797 795 795 794 782 778 776 770 754 705 667 678 683 681 692 696 696 702 703 705 709 713 716 714 716 720
780 782 776 772 778 784 791 799 799 799 796 783 771 768 768 766 761 758 759 761 759 756 758 757 756 756 755 761 765 762 766 770 771 770 763 757 751 743 742 740 743 756 764 767 767 762 766 768 765 777 791 784 769 769 774 768 769 777 778 779 780 781 791 791 787 791 790 778 766 766 755 703 667 676 679 679 690 691 695 700 696 698 702 704 710 712 713 716
775 774 769 770 776 779 786 790 788 788 784 771 763 761 761 759 758 758 757 759 761 760 760 757 753 754 751 752 756 758 761 762 764 765 758 752 748 739 735 739 743 747 753 760 763 761 762 765 766 766 762 763 771 780 788 779 769 772 772 770 771 773 777 774 768 774 785 782 770 775 766 707 665 676 682 681 686 686 693 698 692 695 699 699 706 710 712 714
767 767 766 768 769 772 780 783 781 781 775 762 757 756 756 756 757 758 756 756 759 758 758 755 750 751 750 749 752 755 756 753 753 757 754 748 743 737 735 741 745 744 746 752 757 760 763 763 767 765 752 758 778 788 788 782 774 771 769 770 772 766 760 759 759 762 766 766 766 779 772 711 666 676 685 682 686 688 693 698 693 695 699 700 705 708 710 712
758 762 767 768 766 767 770 768 767 771 769 763 761 759 756 755 754 754 753 752 751 751 750 747 746 747 747 748 750 749 751 749 745 745 745 740 736 738 738 738 740 740 738 741 743 748 757 759 764 771 764 759 766 771 776 779 775 766 761 766 767 761 761 764 770 773 762 748 750 763 750 699 668 680 687 685 690 691 694 701 699 697 698 699 703 705 707 710
756 761 765 767 766 763 757 750 752 759 761 762 761 758 757 755 747 744 747 747 745 745 744 743 744 744 744 747 748 746 746 744 739 740 740 734 733 740 741 737 735 734 733 734 735 736 745 750 753 762 766 759 749 743 748 759 767 766 761 762 762 760 761 760 762 766 753 741 750 751 721 683 669 678 680 681 689 691 692 698 701 701 700 699 700 700 702 705
750 755 764 769 767 761 753 748 750 752 751 757 760 755 754 752 742 738 743 744 741 742 743 743 745 745 744 746 746 742 741 741 740 741 736 731 732 739 746 743 737 737 739 738 737 737 741 742 740 738 740 740 732 723 728 740 749 753 752 753 757 757 756 756 754 746 738 747 754 732 702 688 686 681 672 670 680 686 685 687 692 695 697 697 697 696 697 701
743 742 751 760 761 760 757 752 752 749 744 749 751 744 742 744 742 741 741 739 737 740 743 742 742 743 741 741 741 736 733 738 743 739 731 729 733 740 748 747 742 742 744 741 740 741 741 738 734 729 725 723 718 714 724 733 732 735 740 742 747 752 757 760 747 727 729 744 736 707 699 708 703 684 667 662 671 682 681 679 680 682 683 686 689 691 695 698
738 734 734 738 741 746 749 744 743 746 744 743 741 734 734 738 740 739 737 736 736 738 741 739 736 733 729 728 731 731 731 736 740 734 726 727 733 738 740 741 743 744 742 743 744 742 740 735 728 727 725 722 717 715 723 732 728 728 733 732 731 739 751 752 735 720 724 726 707 692 701 710 698 675 660 659 669 678 676 673 674 675 675 679 681 685 689 693
734 732 731 732 729 730 732 730 733 740 740 738 736 731 729 728 726 726 729 736 739 735 733 731 723 719 718 720 726 731 732 731 727 722 721 725 730 733 732 733 741 746 743 741 743 742 740 732 725 726 727 725 723 719 723 734 732 727 730 729 722 723 734 738 724 711 714 712 702 701 707 704 682 659 655 661 666 672 674 670 668 669 670 673 674 677 682 686
728 727 727 729 728 726 727 727 732 737 735 735 735 728 723 720 716 717 721 725 727 727 727 722 710 709 715 721 728 729 722 716 712 710 714 722 727 728 727 723 729 743 747 740 739 743 740 729 723 726 729 726 720 718 724 731 731 728 729 724 712 711 721 723 711 705 711 713 711 714 718 702 668 651 662 669 666 670 674 668 663 661 662 666 667 668 674 679
722 720 720 723 722 722 723 724 728 732 730 730 730 723 719 717 711 711 712 710 710 715 720 716 709 712 720 724 726 720 708 704 706 704 707 715 718 717 719 717 719 733 744 741 739 740 739 733 727 731 736 728 717 719 725 727 732 738 730 712 700 704 709 700 692 698 706 708 709 714 713 690 658 654 670 671 667 671 670 663 658 655 656 661 661 659 664 669
721 718 717 718 715 713 715 717 721 724 719 716 716 711 709 707 705 710 714 710 706 707 710 710 710 718 725 722 714 704 698 700 702 702 705 710 710 709 712 714 714 722 733 737 737 736 736 734 731 736 741 730 719 723 726 730 740 736 715 698 694 698 695 684 683 692 698 700 702 698 685 666 654 660 668 666 667 669 662 655 653 650 652 658 656 652 655 659
Wind_Speed
11 11 12 13 14 15 15 16 17 18 18 19 19 20 20 20 20 20 19 18 15 12 9 6 6 6 6 6 6 6 9 7 3 1 2 1 0 2 3 4 4 5 5 4 3 6 4 2 2 4 6 3 4 1 2 2 2 3 3 3 1 3 3 5 7 6 4 1 3 4 5 6 4 2 2 1 2 3 1 3 2 3 3 3 5 3 21 32
10 10 11 12 13 14 14 15 16 17 17 18 19 19 20 20 20 20 20 19 17 14 11 9 6 6 7 8 8 7 10 8 4 2 1 1 1 3 4 5 5 6 5 4 4 4 3 2 1 6 4 3 3 2 2 1 3 3 3 2 2 5 5 5 6 5 3 1 3 5 4 4 5 5 4 3 2 2 3 4 2 5 5 1 2 13 26 31
10 10 11 11 12 13 13 14 15 16 17 17 18 18 19 19 20 20 20 19 18 16 13 11 8 6 7 9 8 7 9 8 4 4 4 1 1 2 4 6 6 5 6 5 5 5 4 1 4 6 4 3 1 2 3 3 1 1 4 2 4 5 4 4 5 6 4 3 4 5 3 2 4 5 4 3 2 3 7 7 4 9 10 5 6 17 25 27
11 11 11 12 12 13 13 14 15 16 16 17 18 18 18 19 19 20 20 20 18 17 15 13 10 7 6 8 9 8 7 5 3 4 4 2 1 2 4 5 6 5 5 5 6 6 5 5 5 4 4 3 3 3 3 3 1 1 3 3 4 3 2 4 6 6 4 4 5 4 3 2 3 3 3 4 3 5 9 10 12 14 12 9 7 15 23 24
12 12 13 13 13 14 14 15 15 16 17 17 18 19 19 19 19 19 20 20 19 18 15 13 11 8 5 5 7 7 4 4 3 4 4 3 2 3 4 4 6 5 4 4 5 5 5 5 6 5 4 2 3 4 1 3 1 1 1 3 4 3 1 4 5 4 4 4 4 5 4 4 3 2 4 8 8 7 6 9 13 12 9 12 13 17 20 20
12 13 14 14 15 15 15 16 16 17 17 17 18 19 19 19 19 19 20 20 19 18 15 12 11 8 4 2 4 3 1 0 3 3 3 4 2 3 4 5 4 4 4 3 3 5 5 6 6 4 3 3 2 2 1 3 2 0 2 3 3 4 2 2 3 3 4 6 5 5 4 3 4 4 4 9 14 7 1 4 8 7 11 17 18 17 16 17
12 13 14 15 16 16 17 17 17 18 18 18 18 19 19 20 20 20 20 20 19 18 15 11 10 7 2 1 2 1 2 4 4 4 4 4 3 4 4 4 3 3 3 3 3 4 5 7 5 4 4 3 2 2 1 2 3 3 1 3 2 3 5 2 2 3 4 5 4 3 2 4 6 4 0 9 17 8 1 1 2 7 15 18 15 13 15 19
12 12 13 14 15 16 17 18 18 18 19 19 19 19 19 20 20 20 20 20 20 19 14 10 9 5 2 1 2 2 2 5 4 4 4 3 3 3 3 3 2 2 2 6 5 5 4 5 3 3 3 2 4 3 2 0 3 3 2 3 1 2 6 3 1 3 4 3 1 3 3 4 6 2 2 12 16 9 4 3 5 8 13 14 12 12 14 16
13 13 14 14 15 16 17 18 19 19 19 20 20 20 20 20 21 20 20 20 20 19 13 9 8 4 4 1 4 2 4 4 4 3 3 3 3 2 2 1 1 1 3 6 5 4 3 2 3 4 3 2 4 3 1 1 1 2 4 3 2 3 5 3 2 2 3 2 2 3 6 5 3 1 7 14 10 6 5 5 7 9 10 11 11 12 13 13
15 15 15 16 16 17 18 18 19 20 20 21 21 21 21 21 21 21 21 21 20 18 12 8 7 3 5 2 5 0 5 4 3 3 2 2 2 2 2 1 1 1 4 5 5 5 4 5 4 4 5 3 3 2 0 1 1 3 4 4 3 3 5 3 3 2 1 2 4 5 7 6 3 2 6 7 1 5 7 5 6 9 10 11 10 12 14 15
16 16 16 17 17 18 19 19 20 21 21 22 22 22 22 22 22 22 22 21 20 16 9 7 6 3 4 3 5 3 4 4 3 2 1 2 3 3 2 2 2 3 4 6 6 5 5 8 8 5 2 2 3 1 2 2 2 2 2 2 4 4 4 2 3 4 1 2 6 7 5 4 3 2 10 5 2 5 7 6 7 9 9 9 10 10 11 14
17 17 17 17 18 18 19 20 21 21 22 22 23 24 23 23 24 23 23 23 20 13 7 6 4 4 2 2 4 6 5 5 3 1 1 3 4 3 4 4 3 4 4 5 5 5 7 8 9 5 1 3 3 1 1 2 3 1 2 2 6 6 3 3 2 3 1 2 6 6 3 5 4 11 12 2 3 3 6 7 6 8 8 7 9 8 8 12
19 19 19 19 18 19 19 20 21 22 22 23 23 24 23 24 24 24 25 23 16 8 4 3 3 5 2 1 5 7 7 6 4 2 2 3 5 4 5 5 5 5 4 7 8 7 7 6 7 5 2 4 2 1 3 4 3 1 2 1 4 6 4 2 2 1 2 3 4 4 4 7 9 16 11 3 5 5 5 7 6 6 6 6 8 7 7 11
20 20 20 21 20 20 19 20 21 22 22 23 23 23 23 24 24 25 25 19 10 3 2 2 2 4 3 3 4 5 8 7 5 3 2 3 4 4 5 5 5 6 6 8 10 8 6 6 8 7 2 3 2 2 4 5 3 0 1 1 2 2 4 5 1 2 2 1 3 3 4 9 9 12 9 4 6 7 7 8 6 6 6 6 8 8 7 10
20 21 21 22 22 21 20 20 21 21 22 23 23 23 23 23 23 25 22 13 5 1 1 1 3 4 1 4 3 3 7 6 5 4 2 2 3 3 5 6 7 9 9 9 10 8 7 7 8 5 0 1 2 3 3 4 3 2 1 3 2 1 4 8 2 5 3 1 1 3 3 10 11 9 4 3 5 6 8 8 7 8 8 8 7 8 8 9
21 21 22 22 23 22 21 20 20 21 22 22 23 23 21 22 23 22 15 8 3 2 1 1 5 4 1 3 1 2 4 4 4 5 4 2 2 4 7 8 7 8 8 8 10 8 6 6 4 2 1 1 4 4 3 4 4 3 1 3 3 2 3 6 2 3 2 1 1 4 3 7 9 6 2 3 6 6 8 9 9 10 10 9 7 8 9 8
21 22 22 23 23 23 22 21 20 20 22 22 22 23 21 21 20 15 9 5 2 2 1 2 5 3 1 1 1 2 1 2 4 4 4 2 2 4 7 6 5 6 7 7 6 4 4 4 1 0 3 2 2 4 3 3 4 3 2 2 4 3 3 4 3 2 1 2 4 4 5 10 13 9 3 4 6 7 9 11 11 10 9 8 8 9 10 10
20 21 22 23 23 24 23 21 20 20 21 21 21 22 21 17 13 7 3 2 1 2 2 2 3 2 2 1 1 3 1 2 2 3 4 3 3 4 5 4 4 5 5 4 2 1 2 3 2 1 3 3 2 5 2 4 4 3 3 3 4 3 3 4 5 2 2 1 4 4 7 14 17 17 11 6 7 9 12 12 10 11 10 9 9 10 10 11
19 20 22 23 24 24 23 21 19 18 20 21 19 19 15 10 7 2 0 1 1 1 1 2 2 2 3 3 2 2 1 2 2 3 4 4 4 4 5 5 5 4 3 1 1 2 1 2 3 1 1 2 4 6 8 8 7 6 5 4 4 5 5 6 5 3 1 1 7 8 10 13 16 19 17 7 7 10 14 11 9 10 9 8 9 10 11 12
18 19 22 24 24 25 23 20 18 16 18 19 18 14 7 3 4 3 3 1 3 3 2 5 4 2 5 3 1 3 3 2 3 3 5 5 5 4 3 4 5 4 2 3 1 1 2 1 4 6 7 8 8 8 6 5 5 4 4 4 5 5 6 6 3 3 1 1 9 10 9 12 15 18 18 10 4 10 15 12 11 11 9 9 10 12 13 14
18 19 21 23 24 25 23 18 15 13 13 14 13 8 0 3 1 4 4 5 7 4 4 6 4 6 8 4 3 4 3 2 3 3 6 5 4 3 1 3 3 0 2 3 2 2 2 3 8 9 8 6 5 6 6 5 5 4 4 4 4 4 7 6 2 4 2 2 6 7 7 13 16 17 17 10 7 15 17 13 14 15 11 8 11 14 14 12
17 18 20 21 23 25 22 16 12 11 10 9 6 2 2 3 3 2 0 4 8 4 5 4 1 6 9 6 5 5 4 2 4 3 7 5 3 3 2 3 4 4 2 1 2 2 1 6 10 7 5 5 5 5 6 6 5 4 3 2 3 4 5 6 3 4 2 2 5 6 8 15 17 18 20 15 13 19 16 11 15 15 11 10 12 13 12 11
16 17 18 20 23 26 22 14 10 9 7 5 3 1 3 2 4 3 3 1 7 4 3 3 3 6 5 4 7 8 4 4 4 5 8 8 2 4 4 4 5 3 0 3 5 3 2 7 7 5 7 8 5 4 6 5 3 2 3 2 4 3 1 4 4 3 2 2 4 7 10 14 15 15 18 14 10 15 14 10 13 12 11 12 13 11 12 13
15 16 16 19 23 24 19 13 8 5 5 3 2 2 4 4 5 4 1 0 4 5 3 5 4 5 4 2 8 10 3 4 3 4 7 10 4 3 4 5 5 2 4 7 8 7 7 6 2 5 5 7 6 3 5 5 2 3 5 6 6 4 5 6 3 4 3 2 3 6 10 10 7 8 11 5 3 8 9 9 12 10 10 10 9 10 13 14
14 15 15 17 22 23 17 10 5 4 5 3 1 3 5 6 5 3 1 1 3 5 3 4 3 4 5 5 7 8 2 2 4 3 5 8 6 4 2 3 3 5 6 7 7 6 8 5 6 6 2 5 6 4 5 7 3 4 5 10 9 6 7 5 3 4 4 3 2 4 7 7 1 3 8 4 4 6 4 6 12 9 7 8 8 11 12 12
14 14 14 15 21 24 13 4 5 6 5 1 2 3 5 6 5 3 2 2 4 5 2 3 2 5 7 5 3 5 2 3 3 2 4 5 4 4 2 1 0 3 6 6 4 4 3 0 4 6 5 5 5 5 6 7 4 3 4 7 7 5 4 3 1 2 0 2 3 3 2 8 2 1 7 4 4 9 7 9 14 9 6 8 10 10 9 9
12 12 13 13 19 20 7 2 8 7 2 0 1 4 4 4 4 3 2 3 6 4 3 2 0 4 6 2 1 5 3 4 1 2 2 2 2 2 3 4 1 2 4 4 2 3 2 3 3 4 6 5 5 5 6 9 7 4 3 4 6 6 5 5 3 2 3 1 4 0 2 8 8 5 8 6 5 11 12 14 16 11 7 9 10 10 9 10
11 11 11 13 16 14 6 8 11 5 2 2 1 3 4 3 4 1 2 3 6 1 3 1 1 3 2 1 2 4 2 2 3 1 1 2 1 3 1 7 6 5 3 5 4 4 3 5 5 6 5 4 6 5 7 10 5 4 3 6 5 5 5 4 4 3 2 3 4 4 4 5 10 5 2 2 4 11 13 15 16 13 8 8 9 10 10 9
11 10 10 11 14 12 8 10 8 4 5 4 2 2 3 4 2 3 2 5 4 1 1 1 3 1 2 2 0 2 1 2 1 3 2 2 1 3 2 6 6 5 2 3 6 4 2 5 7 8 6 6 5 2 4 7 4 3 6 6 4 4 4 3 3 2 1 1 7 8 7 5 10 4 3 2 3 10 11 12 13 11 9 6 7 9 8 7
10 10 10 10 11 9 8 8 6 5 7 5 4 2 3 2 2 2 4 6 2 0 1 1 3 2 5 4 3 1 1 1 0 1 2 1 2 5 1 3 6 5 0 3 4 4 1 1 3 4 4 5 5 3 1 2 3 6 6 5 5 4 4 3 1 2 1 4 8 8 12 10 8 3 5 4 5 8 9 8 9 9 9 7 8 7 7 7
10 10 10 9 8 7 6 5 3 5 6 5 3 2 2 2 4 4 8 5 1 1 1 1 2 3 6 6 3 2 2 1 1 2 2 2 2 4 1 1 3 3 2 4 4 3 1 1 2 2 3 5 6 5 3 3 4 5 4 3 3 4 3 4 3 3 1 6 4 3 8 9 9 7 4 6 7 7 9 9 9 10 10 8 7 6 7 7
11 11 11 9 8 8 8 7 7 9 7 3 2 3 4 2 2 5 5 1 2 3 4 3 2 3 5 3 1 3 3 2 2 5 5 4 3 4 4 5 5 1 3 5 4 4 1 4 3 1 2 4 6 5 3 4 2 3 3 4 2 4 3 3 3 1 3 7 3 2 3 5 12 11 7 8 10 10 10 9 9 9 9 8 6 6 6 5
13 12 13 11 8 9 10 10 10 11 7 1 2 3 7 2 7 5 4 3 3 3 2 3 1 3 4 2 2 4 3 2 4 3 3 3 3 5 6 5 6 2 3 5 1 2 3 4 2 4 2 3 8 6 3 2 3 5 5 4 3 1 0 3 4 2 5 7 3 3 3 4 9 9 11 17 18 15 11 10 10 8 8 7 5 4 4 5
13 12 15 14 10 9 10 10 10 9 7 1 2 5 5 6 6 4 7 7 2 1 2 3 3 3 3 3 4 4 3 4 5 5 3 3 3 5 6 7 6 2 2 2 1 3 4 6 4 7 3 6 10 8 5 6 5 5 4 5 5 5 4 5 4 4 7 6 4 1 2 4 5 4 8 14 15 11 9 10 9 7 7 5 3 4 4 5
15 14 16 17 14 12 11 11 9 7 5 1 3 4 6 10 4 3 6 6 2 1 1 2 4 3 3 4 3 3 4 4 3 5 4 4 5 5 5 7 9 6 5 3 3 3 3 9 6 3 2 8 10 5 5 8 4 2 3 4 3 5 5 3 3 4 1 4 5 3 4 6 5 3 4 7 6 6 8 9 7 9 8 4 4 6 6 6
18 17 17 20 19 16 14 13 10 6 2 2 4 6 10 9 4 5 5 5 5 5 4 1 3 4 5 3 2 4 3 2 2 3 4 4 4 6 4 5 10 12 10 7 3 3 2 6 2 1 3 5 6 4 3 3 3 3 3 4 4 3 6 3 2 1 4 3 6 2 5 10 7 5 6 7 4 6 9 7 8 11 8 5 6 8 7 7
23 20 17 20 22 19 16 14 12 7 1 2 7 10 7 5 5 6 4 4 4 6 7 4 4 6 5 3 4 6 3 1 2 4 3 3 4 6 7 4 6 16 17 8 2 4 4 4 3 3 3 2 0 2 2 2 3 6 4 5 3 2 4 3 2 2 2 5 5 5 11 16 12 7 2 3 4 8 11 9 10 11 6 5 9 9 8 7
26 18 13 21 27 23 18 18 16 9 4 2 11 13 4 2 3 2 2 3 2 4 6 6 6 6 6 5 4 4 6 4 4 4 3 4 5 5 8 4 5 14 18 8 2 3 4 3 5 2 1 1 3 2 2 3 2 5 4 3 4 3 2 2 2 3 3 4 4 10 16 17 13 9 6 5 8 10 11 11 11 11 9 8 10 11 10 7
21 9 6 18 29 25 22 23 17 8 3 5 12 12 3 1 4 2 4 4 3 4 6 6 5 3 4 6 3 3 6 6 6 5 4 4 5 3 7 5 5 9 13 11 6 2 3 4 4 1 2 1 2 1 5 2 1 2 0 0 2 2 4 3 3 3 3 4 5 11 14 15 11 7 7 11 11 10 10 10 10 12 11 10 10 11 9 7
13 3 3 14 29 29 29 25 13 6 5 7 11 9 2 1 4 6 8 6 3 3 5 5 5 4 4 5 4 4 6 6 6 5 4 5 5 5 5 6 5 4 4 6 5 1 3 3 4 1 3 1 3 6 8 8 6 4 3 3 2 1 2 1 1 2 3 4 5 6 10 17 9 6 8 10 9 11 11 10 10 10 10 10 10 11 9 8
7 3 2 17 34 36 31 17 6 5 5 7 10 8 4 3 4 5 5 6 4 2 2 5 7 6 6 5 4 4 5 4 6 5 4 5 5 5 7 8 9 8 5 2 3 3 3 4 5 3 2 5 7 5 2 5 8 9 7 8 8 6 4 1 5 3 2 4 5 5 9 18 9 6 6 7 8 10 11 11 10 9 10 11 11 11 10 8
5 4 5 25 42 40 24 8 5 6 5 6 7 5 5 5 4 4 4 4 3 3 1 3 7 7 6 5 4 5 6 5 7 7 5 6 8 8 6 6 10 11 8 4 3 3 3 2 3 5 6 6 5 2 1 3 5 5 4 6 7 6 7 6 8 5 2 2 3 3 4 17 11 6 6 6 8 9 10 11 10 8 9 10 9 10 9 8
5 4 8 31 49 39 16 6 6 6 6 4 2 2 3 3 3 4 6 6 5 4 4 4 5 6 7 5 4 5 6 6 7 7 4 5 8 9 6 8 10 9 5 3 2 1 2 2 3 6 6 3 3 4 3 3 3 3 4 4 6 8 9 8 6 3 3 5 4 3 4 18 13 4 6 5 6 7 7 8 9 7 7 8 8 8 7 8
5 2 3 26 46 35 13 8 9 9 10 6 5 7 4 2 6 7 7 8 7 6 7 7 5 5 6 4 4 7 7 6 7 7 7 7 7 5 7 13 13 8 5 4 5 5 4 3 4 4 6 5 3 2 3 4 1 4 4 5 8 11 8 3 1 1 4 8 8 5 8 18 12 3 5 4 4 5 6 6 7 7 6 7 7 7 8 8
4 2 3 13 28 22 9 6 7 8 13 13 11 12 8 5 7 10 10 10 8 6 5 6 4 4 5 4 3 7 8 8 9 6 6 7 4 1 5 12 14 10 4 2 5 7 6 5 7 7 8 10 11 8 4 1 2 3 2 6 11 15 14 7 2 5 10 7 8 7 15 21 15 9 9 9 6 6 7 6 7 7 7 7 7 8 8 8
4 3 2 3 8 9 7 3 3 5 10 13 10 10 13 12 6 6 10 10 9 7 4 2 2 3 5 6 7 11 12 12 8 5 5 6 3 2 1 5 8 4 3 2 4 6 3 4 9 13 14 13 13 13 6 6 4 4 6 9 12 15 16 11 8 11 9 3 5 15 24 21 20 22 25 21 12 8 10 8 7 7 8 9 9 10 9 7
3 4 5 5 3 5 7 7 7 7 6 10 8 6 13 16 9 3 7 9 9 9 5 4 5 6 8 11 12 14 15 11 7 9 13 9 4 3 1 1 3 1 4 2 1 4 3 4 12 17 19 17 18 20 9 8 7 9 8 11 14 14 15 14 17 17 8 4 11 23 22 17 20 27 32 30 19 11 13 14 11 10 9 9 9 9 8 8
4 3 5 8 6 6 9 12 15 14 10 9 9 8 11 14 12 9 8 5 5 9 8 6 11 17 19 17 14 12 11 8 8 13 17 11 4 2 1 2 3 2 4 1 2 3 4 7 12 14 18 18 19 22 11 7 7 8 8 12 16 15 16 19 24 23 14 12 19 22 17 15 21 29 33 30 19 11 14 16 13 11 9 7 8 9 9 9
4 2 2 6 6 8 13 16 18 19 18 14 10 11 14 16 19 15 7 3 3 10 13 12 18 25 26 21 14 9 9 9 11 15 14 9 5 3 3 4 2 1 3 3 2 2 4 6 10 11 13 14 17 20 12 6 9 12 10 14 20 20 17 20 26 28 22 21 20 19 19 19 25 31 29 23 17 11 12 15 16 15 13 11 11 10 10 10
5 2 3 5 6 8 10 11 11 13 15 14 11 12 15 19 21 15 8 9 11 10 13 20 25 21 18 17 13 13 17 19 19 17 10 7 6 5 5 5 2 1 2 4 3 2 4 6 8 7 8 12 17 19 11 8 12 15 15 20 26 24 18 20 26 24 19 18 17 17 18 20 27 29 22 18 18 14 14 20 23 21 18 15 15 13 10 11
12 7 3 4 6 9 10 9 9 10 10 11 13 14 15 19 22 18 11 12 15 10 11 22 27 14 6 10 15 22 27 25 24 20 12 10 9 7 6 6 6 5 4 5 3 2 4 4 4 5 7 12 17 16 10 8 8 10 16 27 31 24 19 23 23 16 13 16 17 16 15 18 25 22 14 14 16 14 18 23 22 20 17 14 16 16 12 12
13 10 5 4 5 8 10 9 9 10 9 11 16 18 18 20 21 18 10 7 13 16 13 17 20 10 4 12 22 27 27 23 21 19 12 7 7 7 6 6 8 8 6 5 3 3 5 4 4 6 8 12 16 12 5 4 3 9 15 21 23 22 23 26 21 14 14 14 14 15 16 20 22 17 14 15 12 13 19 20 19 19 15 12 16 18 13 12
Wind_Direction
10 11 11 12 12 11 12 12 12 12 11 10 11 13 16 18 20 21 16 6 356 360 4 335 281 266 260 253 275 327 348 345 341 60 160 200 32 22 359 1 359 6 28 40 80 155 167 45 72 126 133 86 9 340 32 37 75 54 80 103 169 180 201 188 185 198 173 205 212 209 189 161 197 217 166 141 67 76 144 256 269 290 281 232 274 195 161 163
6 8 8 8 8 8 8 8 9 8 8 7 6 6 8 12 13 14 15 10 357 349 354 352 322 275 259 255 265 299 333 337 315 288 217 197 5 19 11 11 8 11 20 37 64 108 113 350 84 112 93 51 349 347 29 1 69 86 111 95 231 196 209 200 180 192 173 122 180 195 190 177 199 176 158 198 229 126 176 241 271 283 264 216 191 156 157 161
357 359 0 360 360 1 1 1 2 2 2 3 2 1 1 3 6 7 7 9 2 349 344 348 340 304 267 255 260 288 320 335 320 260 229 234 351 354 8 18 16 20 20 29 43 54 87 143 140 113 63 58 3 8 45 8 26 155 113 100 243 211 232 227 192 201 191 135 149 189 175 199 219 160 159 196 197 175 204 222 201 236 232 177 155 157 158 162
349 349 351 351 351 352 352 353 353 355 355 356 356 356 355 356 359 0 1 3 3 354 343 342 341 328 286 257 251 275 324 347 288 210 190 234 309 330 352 10 13 23 23 33 44 42 74 106 110 92 71 68 340 19 65 339 293 142 115 172 227 190 246 227 205 213 187 148 155 158 130 229 230 163 186 160 168 234 229 224 207 219 208 166 166 166 164 166
345 344 344 344 345 345 346 346 346 348 349 350 351 350 351 351 352 355 356 356 359 356 346 339 336 336 316 263 244 265 355 22 259 186 174 231 249 330 344 355 2 18 21 30 49 45 56 74 70 53 60 77 349 28 76 297 70 92 242 219 205 156 235 229 204 210 162 124 121 128 154 204 152 179 206 171 204 235 228 227 218 218 182 160 172 170 170 172
341 339 339 339 340 340 340 341 342 343 343 344 345 346 346 347 348 350 352 352 354 353 348 340 332 333 333 263 234 243 97 308 244 182 206 229 230 306 335 342 351 12 17 33 60 58 48 39 53 59 52 64 23 69 200 294 31 143 274 275 228 183 225 224 171 212 161 128 142 163 181 152 139 249 222 194 224 227 136 243 226 207 167 165 168 167 174 178
334 334 334 333 334 335 336 337 338 339 339 340 340 342 343 343 345 345 347 348 348 350 347 340 329 317 341 93 210 126 103 254 244 192 227 228 231 281 318 324 340 5 19 45 59 86 68 39 60 118 86 76 188 154 174 308 30 103 208 277 252 187 226 235 122 189 169 159 188 166 139 150 186 239 87 218 233 224 197 291 193 168 156 161 165 172 183 184
327 326 326 327 327 328 331 332 334 335 335 335 336 338 339 339 341 341 343 343 344 346 341 334 328 295 272 133 181 13 333 249 215 194 231 236 240 273 291 294 343 9 66 50 56 131 101 57 108 154 88 93 176 149 132 12 35 92 172 240 229 205 246 280 132 178 174 205 170 125 196 213 200 208 275 245 238 221 208 112 123 142 146 163 174 181 187 186
324 322 322 322 322 324 326 328 330 331 332 332 332 334 336 337 337 338 339 339 340 341 336 328 326 285 235 163 100 9 276 210 174 199 231 239 244 265 261 232 54 56 92 55 57 121 109 137 193 191 163 145 158 149 137 170 275 186 170 199 214 274 287 321 282 177 149 212 119 167 252 268 252 290 268 259 245 200 159 120 139 146 156 179 182 185 188 187
322 321 322 321 321 322 323 325 326 328 329 329 330 331 334 334 333 335 335 336 337 337 332 317 317 276 220 190 93 17 247 182 179 216 208 202 201 211 213 157 112 114 105 68 64 75 95 176 181 153 147 122 140 150 303 166 188 169 158 201 215 279 312 351 295 304 123 210 169 200 255 279 324 343 254 269 262 152 135 133 162 161 176 188 186 193 191 192
322 321 320 320 321 320 321 322 323 325 326 327 329 329 332 333 331 332 333 333 334 333 322 307 310 247 209 163 134 209 226 175 191 202 179 186 173 186 157 106 108 124 119 88 83 81 104 157 145 121 145 131 131 50 288 187 109 132 137 241 266 313 300 277 290 289 268 220 180 180 247 285 17 255 238 244 117 154 145 159 181 182 193 191 191 194 193 200
324 322 319 319 319 319 319 319 320 322 323 325 326 328 331 331 329 329 330 331 331 326 302 302 294 207 174 105 181 220 213 179 190 179 186 185 161 155 101 86 92 107 133 112 108 109 115 144 127 98 244 149 131 34 217 143 69 54 86 278 297 351 322 244 302 286 205 203 182 159 270 267 201 227 239 183 134 148 141 177 192 198 202 193 198 196 199 204
325 323 320 318 317 317 317 317 319 319 320 322 324 327 330 329 329 327 328 332 332 321 281 294 264 195 144 299 223 214 208 196 204 189 147 164 153 119 83 85 92 93 117 123 129 122 119 146 121 107 129 112 134 173 114 57 43 309 62 58 308 354 333 264 37 23 156 180 178 150 282 260 218 231 242 136 147 136 151 204 202 206 208 198 202 200 206 205
326 323 321 319 318 316 317 317 316 315 317 319 321 325 329 329 327 324 328 333 335 322 276 289 228 172 143 248 231 202 211 207 208 197 154 164 151 112 86 90 94 95 101 115 127 119 113 130 109 100 96 82 142 140 53 12 26 55 6 41 12 341 284 291 8 129 160 182 160 142 260 269 255 245 240 182 166 160 194 220 206 210 210 205 207 205 213 208
324 323 321 320 318 317 316 316 314 315 315 316 319 324 328 328 323 322 327 333 337 304 260 239 189 149 100 275 246 195 214 208 206 203 175 158 148 132 108 108 103 97 98 105 113 110 112 118 96 81 10 355 74 91 23 348 11 36 323 303 341 197 268 302 288 175 201 321 123 156 229 274 277 270 254 179 172 184 214 224 212 217 212 210 211 207 218 217
322 322 321 319 318 317 316 315 315 315 315 316 319 322 326 325 319 319 324 332 328 262 220 191 183 148 67 279 219 196 220 202 201 202 189 165 148 145 126 118 103 95 100 103 105 105 96 85 69 69 118 53 75 86 35 3 343 1 45 255 270 212 277 312 303 215 231 108 227 222 233 280 278 280 325 153 183 197 226 235 221 220 216 211 212 211 216 217
320 320 319 318 318 317 316 317 318 317 316 317 320 321 325 323 315 315 323 338 333 224 166 165 164 140 297 243 172 283 268 183 186 186 181 157 127 140 134 115 94 98 98 96 105 94 51 53 73 311 49 48 88 92 39 331 297 321 18 254 252 222 252 298 296 306 53 147 228 237 237 257 266 271 264 176 190 201 227 237 227 224 221 211 210 214 217 215
319 319 317 316 316 316 316 319 320 318 317 319 323 323 322 317 310 311 320 347 53 101 102 123 120 101 287 232 212 274 267 175 177 165 172 157 131 143 141 117 114 106 65 52 66 39 9 36 78 350 20 21 66 100 160 239 218 230 237 245 275 257 238 254 264 288 64 157 239 237 244 253 265 272 262 208 185 212 234 236 231 229 222 213 211 215 218 217
320 319 317 315 315 314 315 320 321 319 319 322 327 326 318 312 311 297 73 69 101 109 187 219 151 142 244 255 258 255 179 169 184 184 175 151 135 134 116 97 103 95 65 9 323 22 45 46 64 225 249 219 198 173 200 210 177 189 207 195 233 258 257 240 238 260 93 255 255 239 242 254 263 269 269 247 185 221 246 243 238 239 226 212 212 218 219 220
322 321 318 316 316 315 316 319 319 318 322 328 336 338 330 340 351 326 336 341 206 187 199 216 201 245 272 273 189 178 182 191 202 193 165 156 147 133 93 55 51 58 110 182 243 17 95 190 233 222 216 215 213 200 189 173 137 133 150 183 226 240 268 260 239 293 34 207 261 250 247 259 260 263 268 265 216 239 250 246 244 240 229 213 213 221 219 223
323 321 319 319 319 319 318 319 318 316 322 331 341 347 4 148 7 301 311 298 258 223 234 232 205 256 263 248 193 166 164 237 227 178 164 165 136 148 256 37 80 308 260 188 186 10 81 211 236 224 213 205 194 170 133 115 104 101 151 205 258 232 256 272 278 319 351 168 265 281 279 266 260 263 266 256 237 252 249 239 245 241 230 217 215 224 222 224
322 321 321 321 322 322 321 320 316 312 317 323 332 352 175 181 198 224 203 301 285 244 232 256 221 259 257 240 219 155 123 251 273 239 178 155 101 189 243 64 136 210 291 129 149 4 21 240 245 220 170 106 90 117 112 111 113 102 134 180 261 244 270 298 338 348 354 181 270 294 288 272 265 264 262 250 235 253 255 228 238 241 227 220 219 224 222 220
320 320 319 318 320 321 321 321 315 315 317 309 307 215 181 164 157 164 134 282 292 277 222 221 206 238 254 244 200 158 160 215 248 263 184 153 126 189 158 111 151 181 295 178 176 168 217 256 255 186 143 112 87 86 100 101 117 148 150 178 250 251 284 287 309 329 275 220 276 287 278 269 264 259 261 259 238 254 264 242 240 237 220 222 220 219 216 215
316 317 317 316 318 320 321 322 319 322 315 300 293 204 180 157 147 156 152 296 287 287 245 210 202 211 212 189 170 168 204 204 195 253 178 155 146 158 158 150 147 178 225 194 175 192 229 242 153 124 130 119 117 125 135 151 239 245 196 206 238 232 220 239 279 320 308 316 317 304 291 275 260 251 258 287 306 266 265 256 253 237 221 228 222 221 218 214
311 316 320 318 320 322 323 324 333 350 326 307 201 178 163 166 160 137 49 7 282 295 288 225 217 211 180 119 148 169 169 228 213 219 174 162 153 139 164 165 159 211 210 163 159 218 250 225 138 130 121 113 139 195 193 178 211 292 230 215 222 225 231 250 326 354 354 331 332 0 318 292 294 248 261 294 321 281 264 259 259 239 215 223 224 227 223 217
307 315 316 316 323 326 324 320 332 339 332 326 159 167 158 173 182 155 72 30 273 272 275 213 187 180 168 127 152 154 112 277 253 160 163 178 175 143 146 168 122 210 180 141 158 223 255 178 123 147 157 152 175 232 226 173 152 291 248 205 201 198 211 228 353 11 260 254 302 47 307 276 275 207 259 265 274 276 277 274 269 253 210 211 224 228 221 216
302 312 311 313 326 331 336 319 321 333 345 11 147 180 181 182 200 210 39 348 275 226 155 228 193 157 171 174 168 141 177 262 33 86 145 167 208 103 153 199 151 204 182 134 204 240 145 96 76 118 131 153 191 242 222 159 138 241 236 128 138 154 180 190 144 175 230 274 319 323 190 273 274 233 249 253 258 276 275 272 274 266 226 211 224 227 220 215
295 308 311 313 324 331 332 309 312 334 14 349 6 197 190 185 207 170 66 275 270 149 130 250 101 127 142 49 82 119 220 278 99 251 337 99 198 72 186 218 176 186 186 142 213 261 120 149 173 144 125 173 204 235 199 161 156 239 183 117 124 141 154 155 135 188 260 31 304 252 160 272 274 236 267 314 239 261 263 258 263 265 247 219 224 229 222 217
288 297 303 309 315 318 315 305 297 297 307 323 329 242 182 189 204 68 85 244 263 76 92 112 127 123 59 84 311 70 1 355 118 260 348 79 199 71 179 211 148 155 177 147 221 257 98 191 191 148 148 202 205 241 191 172 193 187 129 98 73 74 79 84 123 158 32 355 262 238 167 229 274 219 128 69 201 237 250 252 254 259 256 232 228 233 223 215
272 280 290 301 306 305 306 300 285 293 297 294 294 239 172 177 112 103 233 242 250 137 98 119 172 164 104 131 255 288 183 279 34 355 11 88 15 35 124 173 100 119 330 346 265 250 357 267 199 150 169 184 143 92 81 126 139 127 109 73 44 39 50 47 69 94 24 264 259 234 180 194 270 248 162 185 203 207 218 240 255 259 259 240 229 232 219 212
256 265 271 281 290 291 300 296 291 322 307 281 264 166 142 52 89 181 232 237 254 238 147 171 190 136 142 164 214 191 163 263 215 143 150 167 50 42 89 157 93 84 343 317 285 284 6 95 227 210 152 129 103 74 38 48 94 107 98 74 21 336 15 16 356 53 268 256 261 240 178 189 245 249 201 229 245 217 201 212 229 240 249 242 227 227 220 214
248 252 251 253 265 268 271 272 290 314 309 273 184 128 97 60 227 213 224 251 252 221 175 181 195 166 180 188 208 181 166 223 203 165 164 165 169 179 196 193 163 99 303 245 262 325 278 215 218 179 158 142 116 86 26 4 59 104 105 88 40 318 345 340 309 130 231 256 249 140 143 219 246 246 232 244 253 237 216 211 209 217 234 234 221 222 221 211
246 245 239 234 243 255 260 270 286 297 296 244 152 74 82 183 238 196 168 207 221 214 139 120 114 139 149 147 233 197 166 212 192 169 171 145 171 227 251 225 173 172 253 211 216 340 288 287 145 157 240 182 157 162 193 239 177 164 154 132 142 163 354 281 271 277 272 272 269 141 147 252 271 257 220 222 232 226 215 220 218 213 223 225 221 222 220 211
244 240 236 231 233 244 252 264 276 282 286 260 122 82 106 221 242 141 178 218 228 18 52 90 87 103 150 199 230 191 178 228 173 150 182 134 161 236 243 228 202 158 122 154 172 176 240 284 198 175 206 172 182 200 171 141 154 179 156 140 158 155 177 233 236 254 276 290 291 227 183 230 265 272 210 215 234 232 217 223 227 236 235 225 251 251 231 220
237 231 235 231 222 225 234 240 253 269 277 210 128 129 194 225 231 142 200 209 194 30 33 60 94 119 236 262 265 225 208 235 147 133 185 177 189 213 197 204 197 161 131 169 221 165 214 266 229 187 227 170 178 199 134 117 137 197 130 125 177 178 174 212 214 196 231 317 291 235 219 230 234 280 245 230 252 244 233 231 229 246 239 206 252 253 234 224
228 222 227 221 213 218 222 219 225 238 240 156 167 197 221 227 188 180 202 170 176 161 118 34 100 149 247 277 257 243 213 228 155 147 208 211 223 219 199 208 191 180 181 178 195 168 189 272 251 87 277 195 173 174 145 140 169 164 153 175 205 178 138 141 259 54 74 281 272 252 259 274 284 279 234 215 221 229 237 233 224 239 231 192 237 245 232 225
216 212 213 207 206 212 213 209 203 200 151 135 207 217 225 230 184 177 181 148 165 137 130 206 204 174 219 240 228 212 174 209 183 172 211 218 239 211 198 243 194 190 201 189 196 208 182 266 249 165 220 243 103 100 80 8 122 133 194 207 164 103 96 108 245 354 31 246 270 295 272 276 282 279 242 160 193 225 234 229 230 242 234 214 239 245 236 227
206 203 212 209 205 204 202 196 180 161 105 139 230 238 224 218 220 164 139 134 120 126 155 214 215 176 196 219 234 182 170 198 177 176 208 211 245 195 166 212 201 196 208 198 248 250 169 243 260 167 140 344 22 81 91 352 56 127 201 202 112 141 161 109 170 223 248 236 271 283 276 274 261 252 261 230 207 216 227 225 230 239 232 225 239 245 238 225
196 191 238 210 201 197 188 180 163 142 126 181 228 242 222 246 268 233 191 169 126 153 190 225 224 198 197 191 185 164 184 196 171 183 211 198 237 206 156 195 208 198 205 188 195 235 144 214 251 14 354 351 42 187 189 198 47 66 203 70 61 164 171 168 167 180 208 214 261 278 281 277 250 204 222 230 209 202 211 212 220 228 226 221 228 239 234 216
179 184 289 188 187 185 173 164 150 144 188 202 220 225 184 275 257 234 217 195 166 184 202 216 209 215 221 189 176 182 197 206 182 191 224 202 231 244 193 193 176 165 187 183 202 198 95 214 232 343 338 284 190 210 199 184 169 160 171 176 211 179 127 212 231 127 146 187 239 261 269 272 261 161 188 210 193 196 198 199 213 220 224 223 222 229 226 214
162 223 237 169 175 171 160 156 164 177 197 224 228 220 204 218 228 244 232 187 198 246 181 186 197 205 212 198 199 186 176 203 194 192 231 220 226 245 214 187 159 140 111 110 225 214 146 201 215 192 254 238 227 224 204 194 177 174 188 189 192 180 129 199 251 220 151 186 206 198 251 268 265 133 172 189 174 199 198 194 211 214 217 225 225 225 219 213
173 221 167 164 169 164 155 172 202 186 212 222 217 215 203 204 210 229 216 178 205 262 277 218 209 207 212 202 194 177 169 200 205 200 233 228 216 228 219 175 151 144 133 132 205 205 126 134 210 230 237 236 250 295 308 241 162 157 215 194 179 178 156 188 230 225 170 211 211 121 259 268 260 136 155 183 172 197 198 192 208 218 219 223 225 228 224 220
187 197 152 165 170 164 159 208 198 198 233 221 219 232 182 178 206 206 201 192 196 201 219 238 203 206 232 211 168 182 189 208 205 191 213 234 228 230 194 148 145 142 135 138 160 146 107 123 199 250 269 297 17 18 340 337 93 142 245 191 172 203 198 204 221 186 173 211 194 104 254 264 266 132 146 197 183 195 203 199 213 221 224 230 230 231 229 225
183 163 132 173 176 170 170 208 193 204 224 222 242 238 214 205 212 207 201 197 196 189 206 228 206 207 232 192 176 210 201 209 219 199 199 222 238 229 163 155 161 168 180 183 174 176 180 171 173 226 275 284 297 322 344 339 266 210 235 184 192 218 214 222 354 106 235 219 170 152 245 256 263 102 129 208 197 210 223 213 221 224 222 232 235 234 230 224
172 119 37 187 188 187 197 205 183 200 213 216 229 229 227 244 225 217 212 205 205 188 193 230 215 198 209 167 198 230 208 216 234 218 210 227 251 268 178 178 179 183 205 198 160 170 180 178 176 196 231 240 246 246 227 200 208 222 227 184 198 212 203 197 219 220 234 216 147 181 244 254 265 281 269 247 211 228 242 219 220 233 231 233 234 232 228 219
182 161 103 191 208 220 237 234 199 209 209 210 223 225 222 232 245 220 204 209 220 202 188 236 178 174 206 193 217 237 226 225 230 225 234 232 239 306 242 197 197 194 358 16 149 158 162 193 197 209 224 229 244 251 214 131 154 209 214 201 204 212 205 201 229 232 224 172 168 225 241 256 274 280 274 264 246 254 269 256 240 240 234 232 235 232 226 217
207 191 166 171 204 233 239 244 230 227 214 197 199 214 217 226 244 236 198 206 209 196 203 231 196 202 216 203 216 234 229 222 215 227 240 236 234 290 355 162 230 323 33 6 212 141 117 227 217 220 230 231 244 254 228 147 195 213 201 213 219 214 201 203 228 232 200 148 235 240 242 257 270 270 269 269 266 269 277 274 268 258 243 231 232 231 220 218
216 211 166 172 182 199 210 220 217 217 217 197 196 216 221 223 228 224 211 198 179 185 199 220 213 217 220 211 213 231 229 221 217 228 239 237 224 265 306 186 218 170 118 67 292 145 153 235 230 227 239 240 248 257 235 172 225 227 197 222 232 220 200 207 231 233 209 212 242 250 251 254 259 260 262 269 275 275 274 276 273 266 255 236 233 227 213 213
214 256 203 184 195 196 202 211 209 209 212 207 206 217 218 222 224 220 198 132 186 203 200 216 223 220 222 219 214 223 225 222 228 229 230 228 201 179 218 233 238 167 159 169 224 177 161 237 241 240 254 254 254 258 241 194 245 253 239 242 246 239 217 214 235 239 229 232 246 259 264 262 259 259 262 273 282 282 281 284 279 271 263 255 249 236 218 214
208 213 190 197 218 214 214 218 207 206 213 210 214 220 221 228 229 224 192 178 207 210 195 220 233 225 218 217 213 224 227 224 233 234 210 190 197 191 204 212 178 75 202 186 205 218 195 224 239 251 271 262 258 263 256 223 239 254 260 259 255 251 239 231 241 245 244 249 251 253 261 262 258 260 269 281 284 286 284 278 275 273 269 265 264 253 228 216
238 238 200 200 222 210 212 217 201 205 214 207 213 221 224 230 229 227 221 205 215 217 191 216 234 234 197 199 210 225 229 225 231 235 210 178 191 199 205 201 168 155 198 202 176 183 201 216 238 256 267 258 259 268 261 230 236 253 256 256 255 255 250 245 245 241 240 251 254 250 248 251 257 264 273 270 270 273 270 267 267 269 267 263 266 263 243 219
252 247 230 230 229 198 202 214 204 207 213 205 212 216 218 226 226 225 236 226 221 225 211 211 228 229 182 207 219 227 231 230 234 239 232 202 192 198 198 182 161 155 175 189 163 159 188 209 233 235 246 255 256 255 221 153 219 250 245 248 254 257 254 254 257 250 234 238 250 251 248 252 261 268 267 261 258 256 258 260 261 265 267 263 261 260 247 227